AQI (44)

Current Conditions for Foresthill, CA. Sunny, Dry   
Visibility: 10 miles
Space WX Alerts: CONTINUED ALERT:  Electron 2MeV Integral Flux exceeded 1000pfu ( Latest Alert ) - Issue Time: 2019 Jul 18 1219 UTC

  Summary / Temperature 

Current Temperature
65.4°F
18.6°C
(24/hr Ago)
64.3°F
(Apparent temp)
66.1°F
Comfortable
Wind Chill Graphs
65.4°F 

70.5°F/ 21.4°C
 --- Virtual Temp: 68.7°F ---

 Temp Rate:

 24/hr Difference:

 Avg Running Temp:

 Todays High:

 Todays Low:

 Y-days High:

 Y-days Low:

 Todays WChill:

 Y-days WChill:

 Evapotranspiration:

-0.3°F/hr 

+1.1°F

65.5°F

68.8°F 12:00am

65.3°F 6:51am

82.5°F 1:29pm

64.3°F 6:51am

64.1°F 6:46am

64.2°F 7:36am

0.008 in

115' Above Ground

 Temperature:

 6'AGL VRS 115'AGL:

 Avg Running Temp:

 Humidity:

 Todays High:

 Todays Low:

 Y-days High:

 Y-days Low:

68.0°F 

+2.6°F

67.4°F

63% 

71.0°F 12:00am

67.0°F 4:23am

83.0°F 3:33pm

66.0°F 5:17am

Temp & Humidity Graphs

  Wind 

Wind Speed

 Calm

Gusting to

 11.0 mph

Wind from ESE

103°  ESE

Calm

 Avg speed:

 Wind Run:

 Peak Gust:

  2.0 mph 

15.0 miles

  17.0 mph 6:40am

  Almanac  

Moon age: 16 days,7 hours,34 minutes,97%

Waning Gibbous
97%
Illuminated
16 days in cycle

 Moonrise:

 Moonset:

 Sunrise:

 Sunset:

 Solar Noon:

9:55pm

7:25am

5:53am

8:27pm

1:10pm

1min 24s less daylight tomorrow 

  Solar Radiation 

(Current Solar)
  206 W/m2 (68%)
(Todays High)
 207 W/m2@7:28am
Feels like: 73°F in the sun

Rain

 Rain Today:

 Rain Rate (/hr):

 Rain last hour:

 Rain Yesterday:

 This Month:

 Season Total:

45 Days Since Last Rain Day

0.00 in

0.000 in

0.00 in

0.00 in

0.00 in

0.00 in

Updated Time

Updated: 7/18/19  7:29am

(Updated  sec ago)

Humidity & Barometer

 Humidity:

 Wetbulb:

 Dew Point:

 Barometer:

71% 

59.6°F 

55.7°F 

29.880 inHg 

 Baro Trend:  Steady 
Northern Calif
Preparedness
Fire 
Level 

    UV Index  

(Current UV)
0.5  Low
(Todays High) @ 7:24am
0.5   Low

National Weather Service Forecast

Today

Today: Sunny
Sunny
Tonight

Tonight: Clear
Clear
Friday

Friday: Sunny
Sunny
Friday
Night
Friday Night: Clear
Clear
Saturday

Saturday: Sunny
Sunny
Saturday
Night
Saturday Night: Mostly Clear
Mostly Clear
Hi 85 °F Lo 62 °F Hi 83 °F Lo 62 °F Hi 84 °F Lo 64 °F

Foresthill Probe 2 Stats  
Foresthill Probe 2: is located on Thomas Street
at 3000 feet. The main Foresthill Weather site
is located on Melody ln at the 2860 foot elevation

Calm
64.6°F
18.1°C
Temp Rate:
0°F
Calm
Gusting to
2.0 mph
(Humidity)
74%
Wind from SE
136°  SE
Updated: 18/07/19 - 07:23:11
 Todays High: 67.7°F 00:00
 Todays Low: 64.2°F 06:54
 Rain Today: 0.00 in
 Season Total: 0.00 in

Foresthill Wx: Monthly,Yearly, Highs and Lows 

Foresthill  
This Weather Data is coming from the main Foresthill
Weather site located on Melody ln at the 2860 foot
elevation
Not Foresthill Probe 2
Weather Data
Month
  High
Month
  Low
Year
High
Year
Low
Temp 87.5°F
7/13/19
58.4°F
7/9/19
89.3°F
6/11/19
24.5°F
2/18/19
Humidity 77%
7/17/19
20%
7/14/19
100%
1/9/19
14%
4/22/19
Heat Index 86.0°F
7/13/19
59.0°F
7/9/19
87.6°F
6/18/19
30.1°F
2/22/19
Wind Chill 87.5°F
7/13/19
55.4°F
7/9/19
89.3°F
6/11/19
11.5°F
2/11/19
Wind Gust 20 mph
7/7/19
0 mph
7/1/19
48 mph
2/27/19
0 mph
1/1/19
Barometer 30.07 in
7/10/19
29.81 in
7/13/19
30.54 in
1/23/19
29.37 in
2/14/19
ET 0.24 in
7/14/19
0.00 in
7/1/19
0.27 in
6/9/19
0.00 in
1/1/19
Dew Point 62.2°F
7/12/19
35.5°F
7/1/19
66.8°F
6/17/19
7.7°F
1/1/19
Pacific Satellite US Radar Satellite Imagery Sacramento,CA.  (click to enlarge)
NWS Weather Forecast - Summary
Updated: Thursday, July 18, 2019 - 4:09am PDT
Current Interstate Highway Conditions for I-80 & US-50
N/A
N/A
NWS Weather Forecast: Today and Tonight (Updated: Thu, 18-Jul-2019 2:59am PDT)
Today

Today: Sunny
Sunny

Hi 85 °F
NWS forecast: Sunny, with a high near 85. South wind 5 to 9 mph.
Tonight

Tonight: Clear
Clear

Lo 62 °F
NWS forecast: Clear, with a low around 62. South southeast wind 5 to 9 mph.
YR.NO 10 Day Weather forecast
Last update: 07/18/2019 @ 00:38
Next update: 07/18/2019 @ 13:00
Provided by: 22
      Temperature Precipitation Pressure Wind  
Today
07/18/2019
06:00 12:00 59°F   29.89 inHg Light breeze from east-northeast 6 mph
  12:00 18:00 84°F   29.88 inHg Gentle breeze from southwest 8 mph
  18:00 00:00 82°F   29.82 inHg Light breeze from southwest 7 mph
    (Click to enlarge)
meteogram

    Forecast for next 9 days

      Temperature Precip Pressure Wind  
Friday
07/19/2019
00:00 06:00 63°F   29.85 inHg Light air from east 3 mph
  06:00 12:00 57°F   29.87 inHg Light air from east-northeast 1 mph
  12:00 18:00 81°F   29.87 inHg Light breeze from west-southwest 6 mph
  18:00 00:00 81°F   29.81 inHg Light breeze from southwest 6 mph
      Temperature Precip Pressure Wind  
Saturday
07/20/2019
00:00 06:00 63°F   29.86 inHg Light air from east 2 mph
  06:00 12:00 55°F   29.87 inHg Light air from east-northeast 3 mph
  12:00 18:00 82°F   29.87 inHg Light breeze from west-southwest 6 mph
  17:00 23:00 84°F   29.81 inHg Light breeze from west-southwest 6 mph
  23:00 05:00 66°F   29.86 inHg Light air from east 1 mph
      Temperature Precip Pressure Wind  
Sunday
07/21/2019
05:00 11:00 55°F   29.86 inHg Light breeze from east-northeast 4 mph
  11:00 17:00 82°F   29.89 inHg Light breeze from west-southwest 6 mph
  17:00 23:00 86°F   29.86 inHg Light breeze from west-southwest 6 mph
  23:00 05:00 64°F   29.91 inHg Light breeze from east 4 mph
      Temperature Precip Pressure Wind  
Monday
07/22/2019
05:00 11:00 63°F   29.89 inHg Light breeze from east-northeast 5 mph
  11:00 17:00 86°F   29.93 inHg Light breeze from southwest 5 mph
  17:00 23:00 88°F   29.91 inHg Light breeze from southwest 6 mph
  23:00 05:00 70°F   29.94 inHg Light air from east-southeast 2 mph
      Temperature Precip Pressure Wind  
Tuesday
07/23/2019
05:00 11:00 61°F   29.94 inHg Light breeze from east-northeast 5 mph
  11:00 17:00 84°F   29.98 inHg Light breeze from southwest 7 mph
  17:00 23:00 86°F   29.94 inHg Light breeze from southwest 7 mph
  23:00 05:00 66°F   29.99 inHg Light air from east-southeast 3 mph
      Temperature Precip Pressure Wind  
Wednesday
07/24/2019
05:00 11:00 55°F   29.97 inHg Light breeze from east-northeast 4 mph
  11:00 17:00 86°F   29.98 inHg Light breeze from west-southwest 5 mph
  17:00 23:00 90°F   29.88 inHg Light breeze from west-southwest 5 mph
  23:00 05:00 66°F   29.90 inHg Light air from east-northeast 3 mph
      Temperature Precip Pressure Wind  
Thursday
07/25/2019
05:00 11:00 59°F   29.88 inHg Light breeze from east-northeast 5 mph
  11:00 17:00 91°F   29.88 inHg Light breeze from southwest 6 mph
  17:00 23:00 93°F   29.83 inHg Light breeze from southwest 6 mph
  23:00 05:00 70°F   29.88 inHg Light breeze from east-northeast 4 mph
      Temperature Precip Pressure Wind  
Friday
07/26/2019
05:00 11:00 63°F   29.88 inHg Light breeze from east-northeast 4 mph
  11:00 17:00 90°F   29.96 inHg Light breeze from southwest 5 mph
  17:00 23:00 91°F   29.91 inHg Light breeze from west-southwest 6 mph
  23:00 05:00 73°F   29.98 inHg Light air from east 2 mph
      Temperature Precip Pressure Wind  
Saturday
07/27/2019
05:00 11:00 63°F   29.96 inHg Light breeze from east-northeast 4 mph
  11:00 17:00 93°F   29.99 inHg Light breeze from west-southwest 6 mph
How Close Are We To this Month's Temperature Record ?
Updated Thursday, Jul 18, 2019- 7:20:00 AM

Current Temperature: 65.4°F

July's High: Temperature Record 98.1°F - Set on Wed, Jul 29, 2015 - 2:57:00 PM
We are currently 32.7°F Less than this Month's record High

July's Low: Temperature Record 51.4°F - Set on Sun, Jul 10, 2016 - 7:04:00 AM
We are currently 14°F More than this Month's record Low

Weather History For Thursday, July 18, 2019


On this Day - In Weather History ...
Data courtesy of weatherforyou.com
powered by Cumulus v1.9.3 (1059)
Ambient Weather VWS v14.00
Top Contact Website Map Copyright © 2007 - 2019 Foresthillweather.com Never base important decisions on this or any weather information obtained from the Internet